EW7642 Victoria CA current weather conditions

sailwx.info

Wind from 213 at 3 knots gusting 13

Air temperature 21.1° C
Dewpoint 14.0° C

Last reported at 2020-Aug-06 00:00 UTC.
Time now 2020-Aug-06 01:11 UTC

Location: N 48°26' W 123°23'.
View on Google Maps.

See reports from other nearby stations

  
Tides and Currents Weather Stations Pressure Air Temp Water Temp Dewpoint Dewpoint Depression Visibility Wind Speed Wind Dir Waves Ship Positions
date/time (UTC)wind fromknots sea level pressurealtimeterstation pressurevisibilityair tempwater tempwave heightnotes
2020-Aug-06 00:00 213 3 gusting 13 21.1
2020-Aug-05 23:45 221 8 gusting 17 21.1
2020-Aug-05 23:30 209 6 gusting 18 21.1
2020-Aug-05 23:15 198 21.1
2020-Aug-05 23:00 212 21.7
2020-Aug-05 22:45 234 21.7
2020-Aug-05 22:30 161 21.7
2020-Aug-05 22:15 234 1 gusting 12 21.1
2020-Aug-05 22:00 202 20.6
2020-Aug-05 21:46 204 20.6
2020-Aug-05 21:30 250 19.4
2020-Aug-05 21:16 216 1 gusting 12 18.3
2020-Aug-05 21:00 270 19.4
2020-Aug-05 20:46 209 2 gusting 13 20.0
2020-Aug-05 20:30 244 20.0
2020-Aug-05 20:15 231 19.4
2020-Aug-05 20:01 192 0 gusting 13 19.4
2020-Aug-05 19:47 221 19.4
2020-Aug-05 19:33 228 18.9
2020-Aug-05 19:16 227 5 gusting 11 18.9
2020-Aug-05 19:01 198 18.3
2020-Aug-05 18:46 221 18.3
2020-Aug-05 18:30 252 18.3
2020-Aug-05 18:16 215 0 gusting 6 17.2
2020-Aug-05 18:01 176 17.2
2020-Aug-05 17:30 196 16.7
2020-Aug-05 17:15 244 16.1
2020-Aug-05 17:00 203 16.1
2020-Aug-05 16:45 207 15.6
2020-Aug-05 16:30 215 2 gusting 13 15.0
2020-Aug-05 16:15 211 3 gusting 11 15.0
2020-Aug-05 16:00 205 6 gusting 12 15.6
2020-Aug-05 15:48 204 3 gusting 9 15.6
2020-Aug-05 15:32 186 15.6
2020-Aug-05 15:18 235 15.6
2020-Aug-05 15:01 200 15.0
2020-Aug-05 14:46 218 14.4
2020-Aug-05 14:31 205 14.4
2020-Aug-05 14:17 210 13.9
2020-Aug-05 14:01 216 13.3
2020-Aug-05 13:46 221 13.3
2020-Aug-05 13:31 210 13.9
2020-Aug-05 13:15 210 13.3
2020-Aug-05 13:01 218 13.9
2020-Aug-05 12:46 227 2 gusting 8 13.9
2020-Aug-05 12:31 216 13.9
2020-Aug-05 12:15 180 13.9
2020-Aug-05 12:00 186 14.4
2020-Aug-05 11:45 180 14.4
2020-Aug-05 11:30 192 14.4
2020-Aug-05 11:15 192 14.4
2020-Aug-05 11:00 190 14.4
2020-Aug-05 10:45 211 14.4
2020-Aug-05 10:30 219 15.0
2020-Aug-05 10:16 239 15.0
2020-Aug-05 10:01 213 15.0
2020-Aug-05 09:45 221 2 gusting 13 15.0
2020-Aug-05 09:31 225 4 gusting 12 15.0
2020-Aug-05 09:16 219 15.0
2020-Aug-05 09:01 225 15.0
2020-Aug-05 08:46 202 15.0
2020-Aug-05 08:31 213 15.0
2020-Aug-05 08:17 181 15.0
2020-Aug-05 08:00 209 15.6
2020-Aug-05 07:45 204 15.6
2020-Aug-05 07:30 221 16.1
2020-Aug-05 07:15 215 16.1
2020-Aug-05 07:00 214 16.1
2020-Aug-05 06:47 212 16.7
2020-Aug-05 06:32 236 16.7
2020-Aug-05 06:01 236 16.7
2020-Aug-05 05:47 190 16.7
2020-Aug-05 05:31 200 17.2
2020-Aug-05 05:17 219 17.8
2020-Aug-05 05:01 195 18.3
2020-Aug-05 04:45 207 18.3
2020-Aug-05 04:30 215 18.9
2020-Aug-05 04:16 232 18.9
2020-Aug-05 04:01 192 18.9
2020-Aug-05 03:45 190 18.3
2020-Aug-05 03:30 190 18.3
2020-Aug-05 03:15 192 18.3
2020-Aug-05 03:00 167 17.8
2020-Aug-05 02:45 181 17.8
2020-Aug-05 02:30 185 17.2
2020-Aug-05 02:17 169 1 gusting 7 17.2
2020-Aug-05 02:01 225 18.3
2020-Aug-05 01:47 186 18.3
2020-Aug-05 01:31 205 20.0
2020-Aug-05 01:16 209 21.1
2020-Aug-05 00:45 244 20.0
2020-Aug-05 00:31 249 20.6
2020-Aug-05 00:15 232 21.7
2020-Aug-05 00:00 174 21.1
2020-Aug-04 23:45 198 20.6
2020-Aug-04 23:30 195 20.6
2020-Aug-04 23:15 177 20.6
2020-Aug-04 23:00 200 21.1
2020-Aug-04 22:45 199 21.1
2020-Aug-04 22:30 205 21.1
2020-Aug-04 22:17 203 21.1
2020-Aug-04 22:01 179 21.1
2020-Aug-04 21:46 189 20.6
2020-Aug-04 21:30 227 20.6
2020-Aug-04 21:17 227 20.0
2020-Aug-04 21:01 235 18.9
2020-Aug-04 20:45 228 18.9
2020-Aug-04 20:30 213 18.3
2020-Aug-04 20:15 184 18.3
2020-Aug-04 20:01 226 18.9
2020-Aug-04 19:45 198 20.0
2020-Aug-04 19:30 213 20.0
2020-Aug-04 19:15 228 19.4
2020-Aug-04 19:00 217 19.4
2020-Aug-04 18:45 238 19.4
2020-Aug-04 18:31 222 19.4
2020-Aug-04 18:17 213 18.9
2020-Aug-04 18:01 200 18.9
2020-Aug-04 17:47 201 18.9
2020-Aug-04 17:31 200 18.9
2020-Aug-04 17:17 238 18.3
2020-Aug-04 17:01 235 18.3
2020-Aug-04 16:46 236 18.9
2020-Aug-04 16:32 169 18.9
2020-Aug-04 16:15 188 18.3
2020-Aug-04 16:00 218 17.8
2020-Aug-04 15:46 220 17.2
2020-Aug-04 15:30 209 16.1
2020-Aug-04 15:16 190 16.1
2020-Aug-04 15:00 214 16.1
2020-Aug-04 14:45 237 17.2
2020-Aug-04 14:30 273 17.8
2020-Aug-04 14:15 273 17.8
2020-Aug-04 14:00 273 16.7
2020-Aug-04 13:45 273 15.6
2020-Aug-04 13:30 273 15.0
2020-Aug-04 13:15 273 15.0
2020-Aug-04 13:02 273 15.0
2020-Aug-04 12:46 273 15.0
2020-Aug-04 12:30 273 15.0
2020-Aug-04 12:16 273 15.0
2020-Aug-04 12:01 254 15.0
2020-Aug-04 11:46 203 15.0
2020-Aug-04 11:30 203 15.6
2020-Aug-04 11:16 249 15.6
2020-Aug-04 11:01 249 15.0
2020-Aug-04 10:46 248 15.6
2020-Aug-04 10:30 248 15.6
2020-Aug-04 10:15 248 15.6
2020-Aug-04 10:00 193 15.6
2020-Aug-04 09:45 193 15.6
2020-Aug-04 09:30 193 15.6
2020-Aug-04 09:15 193 15.6
2020-Aug-04 09:00 193 16.1
2020-Aug-04 08:45 193 16.1
2020-Aug-04 08:31 193 16.7
2020-Aug-04 08:16 193 16.7
2020-Aug-04 08:00 193 16.7
2020-Aug-04 07:46 193 16.7
2020-Aug-04 07:30 193 17.2
2020-Aug-04 07:15 193 17.2
2020-Aug-04 07:02 193 17.2
2020-Aug-04 06:46 193 17.2
2020-Aug-04 06:31 193 17.2
2020-Aug-04 06:16 198 17.2
2020-Aug-04 06:02 198 17.2
2020-Aug-04 05:46 198 17.2
2020-Aug-04 05:32 198 17.2
2020-Aug-04 05:17 198 17.2
2020-Aug-04 05:01 198 17.8
2020-Aug-04 04:46 261 18.3
2020-Aug-04 04:30 170 18.3
2020-Aug-04 04:16 203 18.9
2020-Aug-04 04:00 190 18.9
2020-Aug-04 03:45 190 18.9
2020-Aug-04 03:30 199 18.9
2020-Aug-04 03:15 198 18.9
2020-Aug-04 03:00 192 19.4
2020-Aug-04 02:45 209 19.4
2020-Aug-04 02:30 173 19.4
2020-Aug-04 02:15 204 19.4
2020-Aug-04 02:01 186 18.9
2020-Aug-04 01:46 200 19.4
2020-Aug-04 01:31 209 18.3
2020-Aug-04 01:16 229 19.4
2020-Aug-04 01:02 205 18.9